Flag Weather past 2 weeks in Weiden in der Oberpfalz, Bavaria, Germany

Now
33 °F

Fog.


Feels Like: 33 °F
Forecast: 29 / 39 °F
Wind: 2 mph from East

Location: Weiden

Current Time: Nov 28, 2014 at 8:36:48 AM

Latest Report: Nov 28, 2014 at 8:00 AM


Visibility: 3 mi

Pressure: 29.99 "Hg

Humidity: 93%

Dew point: 31 °F

Location of Weiden in der OberpfalzLocation

Historic Weather in Weiden in der Oberpfalz — Graph

°F

Weiden in der Oberpfalz temperature yesterday

Maximum temperature yesterday: 36 °F (at 11:00 AM)
Minimum temperature yesterday: 34 °F (at 10:00 PM)
Average temperature yesterday: 35 °F

Past Weeks' High & Low Weather Summary

 TemperatureHumidityPressure
High53 °F (Nov 15, 12:00 PM)100% (Nov 17, 4:00 AM)30.37 "Hg (Nov 17, 4:00 AM)
Low29 °F (Nov 22, 9:00 AM)73% (Nov 25, 2:00 PM)29.47 "Hg (Nov 16, 3:00 AM)
Average41 °F89%30.04 "Hg
* Reported Nov 13 7:00 AM — Nov 28 7:00 AM, Weiden in der Oberpfalz, Weather by CustomWeather, © 2014

Note: Actual official high and low records may vary slightly from our data, if they occured in-between our weather recording intervals... More about our weather records

Advertising

Weiden in der Oberpfalz weather history for previous 24 hours

 ConditionsComfort  
Time TempWeatherWind HumidityBarometerVisibility
7:00 AM
Nov 28
33 °FFog.3 mph92%29.98 "Hg3 mi
6:00 AM33 °FFog.2 mph91%29.97 "Hg3 mi
5:00 AM33 °FFog.2 mph91%29.97 "Hg3 mi
4:00 AM33 °FFog.3 mph90%29.96 "Hg3 mi
3:00 AM33 °FFog.2 mph89%29.96 "Hg3 mi
2:00 AM34 °FFog.1 mph89%29.96 "Hg3 mi
1:00 AM34 °FFog.1 mph88%29.96 "Hg3 mi
12:00 AM34 °FFog.2 mph88%29.96 "Hg3 mi
11:00 PM
Nov 27
34 °FFog.3 mph88%29.96 "Hg3 mi
10:00 PM34 °FFog.3 mph88%29.96 "Hg3 mi
9:00 PM34 °FFog.2 mph87%29.94 "Hg3 mi
8:00 PM34 °FFog.2 mph90%29.94 "Hg3 mi
7:00 PM34 °FFog.2 mph90%29.93 "Hg3 mi
6:00 PM34 °FFog.2 mph90%29.93 "Hg3 mi
5:00 PM35 °FFog.2 mph91%29.93 "Hg2 mi
4:00 PM35 °FFog.3 mph91%29.92 "Hg2 mi
3:00 PM35 °FFog.5 mph90%29.91 "Hg2 mi
2:00 PM35 °FFog.7 mph88%29.92 "Hg3 mi
1:00 PM36 °FFog.6 mph86%29.94 "Hg3 mi
12:00 PM36 °FFog.6 mph85%29.95 "Hg3 mi
11:00 AM36 °FFog.7 mph85%29.96 "Hg4 mi
10:00 AM35 °FFog.7 mph84%29.97 "Hg3 mi
9:00 AM35 °FFog.6 mph83%29.97 "Hg3 mi
8:00 AM35 °FFog.5 mph84%29.96 "Hg3 mi
Weather by CustomWeather, © 2014

See weather overviewHow to use our weather pages